Tracking 23731 objects as of 26-Sep-2021
HD Live streaming from Space Station
objects crossing your sky now

STARLINK-1348

Track STARLINK-1348 now!
10-day predictions
STARLINK-1348 is classified as:


NORAD ID: 45561
Int'l Code: 2020-025AG
Perigee: 551.1 km
Apogee: 554.0 km
Inclination: 53.1 °
Period: 95.6 minutes
Semi major axis: 6923 km
RCS: Unknown
Launch date: April 22, 2020
Source: United States (US)
Launch site: AIR FORCE EASTERN TEST RANGE (AFETR)
aabbcc
Your satellite tracking list
Your tracking list is empty




NASA's NSSDC Master Catalog

Two Line Element Set (TLE):
1 45561U 20025AG  21268.79013607  .00005276  00000-0  36704-3 0  9995
2 45561  53.0581 100.4165 0002054 113.5170 246.6035 15.06991365 81506
Source of the keplerian elements: AFSPC